QPF
0.01 0.00 0.01 0.01 0.00 0.01 0.01 0.00 0.00 0.00 0.01 0.00 0.01 0.01 0.01 0.01 0.01 0.02 0.02 0.02 0.02 0.03 0.03 0.02 0.02 0.03 0.03 0.05 0.08 0.08 0.07 0.08 0.10 0.10 0.07 0.06 0.07 0.10 0.11 0.12 0.13 0.09 0.07
0.00 0.00 0.01 0.01 0.00 0.01 0.01 0.01 0.01 0.01 0.01 0.01 0.00 0.01 0.01 0.01 0.01 0.01 0.02 0.03 0.03 0.02 0.02 0.02 0.03 0.03 0.03 0.04 0.07 0.08 0.07 0.07 0.09 0.10 0.09 0.05 0.07 0.12 0.11 0.10 0.09 0.06 0.05
0.00 0.00 0.00 0.01 0.01 0.01 0.01 0.01 0.01 0.01 0.01 0.00 0.00 0.01 0.01 0.01 0.01 0.02 0.01 0.02 0.02 0.03 0.02 0.02 0.03 0.04 0.04 0.05 0.05 0.07 0.08 0.08 0.09 0.12 0.10 0.05 0.07 0.10 0.10 0.09 0.06 0.05 0.05
0.00 0.00 0.00 0.00 0.01 0.00 0.00 0.00 0.00 0.00 0.00 0.01 0.01 0.01 0.01 0.00 0.01 0.02 0.02 0.01 0.03 0.04 0.03 0.03 0.03 0.05 0.06 0.06 0.06 0.06 0.07 0.09 0.11 0.14 0.13 0.09 0.07 0.09 0.09 0.08 0.05 0.04 0.04
0.00 0.00 0.00 0.00 0.00 0.00 0.00 0.00 0.00 0.00 0.00 0.00 0.00 0.00 0.00 0.00 0.00 0.01 0.01 0.01 0.02 0.03 0.03 0.03 0.03 0.04 0.05 0.06 0.07 0.07 0.07 0.10 0.12 0.12 0.12 0.13 0.10 0.10 0.08 0.08 0.04 0.03 0.03
0.00 0.00 0.00 0.00 0.00 0.00 0.01 0.00 0.00 0.00 0.00 0.00 0.00 0.01 0.01 0.01 0.00 0.01 0.02 0.06 0.07 0.04 0.02 0.02 0.03 0.03 0.04 0.05 0.06 0.07 0.08 0.12 0.14 0.09 0.06 0.07 0.09 0.10 0.07 0.07 0.05 0.03 0.03
0.00 0.00 0.00 0.00 0.00 0.00 0.00 0.00 0.00 0.00 0.00 0.00 0.00 0.01 0.01 0.01 0.01 0.01 0.03 0.21 0.25 0.07 0.03 0.01 0.01 0.02 0.03 0.05 0.05 0.07 0.10 0.16 0.13 0.11 0.09 0.07 0.06 0.08 0.08 0.07 0.05 0.05 0.04
0.00 0.00 0.00 0.00 0.00 0.00 0.00 0.00 0.00 0.00 0.00 0.01 0.01 0.01 0.00 0.00 0.00 0.01 0.01 0.07 0.09 0.04 0.03 0.02 0.01 0.01 0.03 0.04 0.05 0.06 0.10 0.15 0.15 0.19 0.20 0.10 0.09 0.11 0.10 0.07 0.06 0.06 0.05
0.00 0.00 0.00 0.00 0.00 0.00 0.00 0.00 0.00 0.00 0.00 0.00 0.00 0.01 0.00 0.00 0.00 0.01 0.01 0.01 0.03 0.03 0.03 0.02 0.01 0.01 0.02 0.03 0.05 0.07 0.10 0.14 0.15 0.20 0.27 0.22 0.19 0.15 0.11 0.08 0.07 0.06 0.05
0.01 0.00 0.00 0.00 0.00 0.00 0.00 0.00 0.00 0.00 0.00 0.00 0.00 0.00 0.01 0.01 0.01 0.01 0.02 0.02 0.02 0.02 0.02 0.01 0.02 0.02 0.02 0.03 0.06 0.10 0.11 0.12 0.13 0.20 0.30 0.31 0.26 0.16 0.10 0.08 0.07 0.06 0.06
0.01 0.00 0.00 0.00 0.00 0.01 0.00 0.00 0.00 0.00 0.00 0.00 0.00 0.01 0.01 0.01 0.01 0.03 0.04 0.05 0.03 0.02 0.01 0.01 0.02 0.03 0.04 0.04 0.07 0.12 0.15 0.13 0.17 0.19 0.30 0.36 0.32 0.19 0.13 0.10 0.08 0.07 0.09
0.02 0.00 0.00 0.00 0.00 0.00 0.01 0.00 0.00 0.00 0.00 0.00 0.00 0.00 0.00 0.00 0.01 0.03 0.05 0.06 0.04 0.04 0.03 0.02 0.03 0.04 0.06 0.06 0.08 0.13 0.17 0.12 0.17 0.22 0.27 0.30 0.32 0.23 0.16 0.11 0.09 0.09 0.10
0.02 0.01 0.00 0.00 0.00 0.00 0.00 0.00 0.00 0.00 0.00 0.01 0.01 0.00 0.00 0.00 0.01 0.01 0.03 0.03 0.03 0.03 0.02 0.02 0.03 0.02 0.04 0.07 0.07 0.07 0.10 0.10 0.11 0.15 0.20 0.25 0.24 0.22 0.17 0.13 0.10 0.09 0.09
0.02 0.03 0.02 0.01 0.00 0.00 0.00 0.00 0.00 0.01 0.01 0.01 0.01 0.01 0.00 0.00 0.01 0.01 0.01 0.01 0.01 0.01 0.02 0.02 0.02 0.03 0.02 0.03 0.05 0.05 0.05 0.07 0.09 0.10 0.16 0.16 0.14 0.17 0.20 0.17 0.11 0.10 0.09
0.01 0.02 0.04 0.03 0.02 0.01 0.01 0.01 0.01 0.01 0.01 0.02 0.02 0.02 0.01 0.00 0.01 0.01 0.01 0.02 0.02 0.03 0.03 0.03 0.03 0.03 0.02 0.02 0.03 0.03 0.04 0.04 0.04 0.05 0.09 0.13 0.13 0.15 0.16 0.15 0.12 0.10 0.09
0.04 0.03 0.04 0.04 0.01 0.01 0.01 0.02 0.01 0.01 0.01 0.02 0.02 0.02 0.01 0.01 0.01 0.01 0.02 0.02 0.03 0.02 0.02 0.02 0.03 0.03 0.03 0.03 0.03 0.03 0.04 0.04 0.04 0.06 0.08 0.11 0.12 0.13 0.15 0.14 0.13 0.10 0.09
0.02 0.02 0.03 0.02 0.01 0.01 0.01 0.01 0.01 0.01 0.01 0.02 0.02 0.01 0.01 0.01 0.01 0.02 0.02 0.02 0.02 0.02 0.02 0.03 0.04 0.03 0.03 0.03 0.03 0.04 0.04 0.03 0.06 0.06 0.09 0.13 0.13 0.12 0.12 0.13 0.12 0.11 0.09
0.01 0.01 0.02 0.02 0.02 0.01 0.01 0.01 0.01 0.01 0.01 0.01 0.01 0.01 0.01 0.02 0.03 0.03 0.03 0.02 0.02 0.02 0.03 0.03 0.03 0.04 0.04 0.04 0.03 0.03 0.04 0.04 0.05 0.06 0.08 0.10 0.11 0.12 0.11 0.11 0.10 0.10 0.09
0.03 0.01 0.01 0.02 0.01 0.01 0.01 0.01 0.01 0.01 0.01 0.01 0.01 0.01 0.01 0.01 0.01 0.02 0.04 0.05 0.03 0.02 0.03 0.03 0.03 0.03 0.04 0.04 0.03 0.03 0.05 0.05 0.07 0.09 0.10 0.10 0.10 0.09 0.07 0.08 0.12 0.11 0.09
0.04 0.02 0.02 0.02 0.02 0.02 0.02 0.01 0.02 0.01 0.01 0.01 0.01 0.01 0.02 0.02 0.02 0.02 0.01 0.02 0.03 0.04 0.04 0.04 0.03 0.03 0.04 0.03 0.04 0.05 0.06 0.05 0.05 0.05 0.07 0.10 0.09 0.07 0.07 0.07 0.09 0.09 0.07
0.03 0.04 0.03 0.04 0.03 0.02 0.01 0.02 0.02 0.02 0.02 0.02 0.02 0.01 0.01 0.01 0.02 0.02 0.01 0.02 0.02 0.03 0.03 0.04 0.03 0.04 0.04 0.05 0.04 0.06 0.07 0.06 0.05 0.04 0.05 0.05 0.06 0.07 0.08 0.07 0.08 0.07 0.06
0.02 0.04 0.03 0.03 0.02 0.01 0.01 0.02 0.02 0.02 0.03 0.02 0.02 0.01 0.01 0.01 0.01 0.02 0.02 0.02 0.03 0.03 0.03 0.03 0.03 0.03 0.03 0.04 0.05 0.05 0.07 0.07 0.06 0.06 0.06 0.05 0.05 0.06 0.08 0.08 0.08 0.07 0.05
0.02 0.02 0.02 0.02 0.02 0.01 0.01 0.01 0.01 0.02 0.02 0.02 0.01 0.01 0.01 0.01 0.01 0.02 0.03 0.03 0.03 0.04 0.04 0.04 0.05 0.04 0.04 0.03 0.06 0.06 0.09 0.08 0.05 0.07 0.08 0.08 0.08 0.09 0.09 0.09 0.07 0.06 0.06
0.02 0.02 0.02 0.02 0.01 0.01 0.01 0.00 0.00 0.01 0.01 0.01 0.01 0.01 0.01 0.01 0.01 0.02 0.03 0.04 0.03 0.04 0.04 0.04 0.04 0.05 0.04 0.04 0.05 0.08 0.09 0.08 0.07 0.08 0.10 0.11 0.11 0.10 0.07 0.06 0.05 0.06 0.06
0.02 0.01 0.01 0.01 0.01 0.01 0.01 0.00 0.00 0.01 0.02 0.01 0.01 0.01 0.00 0.01 0.01 0.01 0.02 0.04 0.04 0.04 0.03 0.03 0.03 0.04 0.04 0.05 0.06 0.09 0.10 0.09 0.09 0.08 0.10 0.11 0.12 0.09 0.06 0.04 0.04 0.07 0.10
0.02 0.02 0.01 0.01 0.01 0.01 0.01 0.00 0.01 0.01 0.02 0.01 0.00 0.00 0.00 0.00 0.00 0.01 0.02 0.04 0.04 0.04 0.05 0.05 0.05 0.05 0.04 0.05 0.07 0.10 0.11 0.10 0.09 0.08 0.08 0.07 0.08 0.08 0.06 0.04 0.05 0.06 0.06
MSLP
1011.83 1010.93 1010.16 1009.59 1009.25 1009.09 1009.02 1008.96 1008.81 1008.55 1008.16 1007.69 1007.21 1006.79 1006.46 1006.27 1006.19 1006.21 1006.28 1006.39 1006.52 1006.68 1006.88 1007.15 1007.50 1007.93 1008.40 1008.90 1009.39 1009.83 1010.23 1010.57 1010.89 1011.21 1011.53 1011.88 1012.25 1012.61 1012.96 1013.28 1013.54 1013.77 1013.97
1011.46 1010.66 1009.99 1009.50 1009.21 1009.06 1008.98 1008.88 1008.70 1008.41 1008.01 1007.55 1007.09 1006.69 1006.40 1006.21 1006.12 1006.10 1006.12 1006.17 1006.24 1006.34 1006.51 1006.77 1007.13 1007.58 1008.09 1008.62 1009.13 1009.60 1010.01 1010.37 1010.70 1011.02 1011.35 1011.71 1012.08 1012.46 1012.83 1013.17 1013.47 1013.73 1013.97
1011.01 1010.33 1009.77 1009.38 1009.16 1009.04 1008.97 1008.86 1008.66 1008.36 1007.96 1007.53 1007.10 1006.74 1006.46 1006.28 1006.17 1006.11 1006.06 1006.04 1006.03 1006.08 1006.20 1006.43 1006.78 1007.23 1007.75 1008.31 1008.85 1009.36 1009.80 1010.20 1010.56 1010.90 1011.25 1011.61 1011.98 1012.36 1012.73 1013.08 1013.41 1013.71 1014.00
1010.54 1010.00 1009.56 1009.27 1009.12 1009.05 1008.99 1008.88 1008.67 1008.37 1008.00 1007.59 1007.20 1006.87 1006.62 1006.44 1006.31 1006.20 1006.10 1006.01 1005.93 1005.91 1005.98 1006.16 1006.48 1006.91 1007.43 1007.99 1008.56 1009.10 1009.60 1010.05 1010.46 1010.85 1011.22 1011.60 1011.98 1012.35 1012.71 1013.06 1013.40 1013.73 1014.07
1010.17 1009.74 1009.42 1009.23 1009.14 1009.10 1009.05 1008.93 1008.72 1008.42 1008.06 1007.68 1007.33 1007.04 1006.81 1006.64 1006.50 1006.37 1006.23 1006.08 1005.95 1005.87 1005.88 1006.00 1006.26 1006.64 1007.13 1007.68 1008.25 1008.83 1009.38 1009.90 1010.39 1010.84 1011.27 1011.67 1012.05 1012.41 1012.75 1013.09 1013.43 1013.78 1014.16
1009.98 1009.66 1009.43 1009.30 1009.25 1009.21 1009.15 1009.01 1008.78 1008.48 1008.12 1007.77 1007.45 1007.19 1006.99 1006.84 1006.71 1006.57 1006.42 1006.25 1006.08 1005.96 1005.90 1005.96 1006.14 1006.45 1006.86 1007.37 1007.93 1008.53 1009.14 1009.73 1010.30 1010.84 1011.33 1011.78 1012.17 1012.51 1012.83 1013.15 1013.48 1013.84 1014.25
1010.06 1009.80 1009.63 1009.53 1009.48 1009.42 1009.31 1009.12 1008.85 1008.52 1008.16 1007.82 1007.52 1007.29 1007.13 1007.01 1006.90 1006.79 1006.65 1006.48 1006.31 1006.15 1006.05 1006.03 1006.11 1006.32 1006.64 1007.07 1007.60 1008.20 1008.84 1009.51 1010.17 1010.80 1011.37 1011.86 1012.27 1012.61 1012.91 1013.20 1013.51 1013.88 1014.31
1010.41 1010.19 1010.04 1009.93 1009.84 1009.72 1009.54 1009.28 1008.95 1008.57 1008.19 1007.84 1007.56 1007.35 1007.22 1007.13 1007.07 1007.00 1006.89 1006.75 1006.59 1006.42 1006.27 1006.18 1006.17 1006.25 1006.46 1006.80 1007.26 1007.84 1008.50 1009.23 1009.97 1010.69 1011.33 1011.88 1012.32 1012.66 1012.94 1013.20 1013.49 1013.85 1014.29
1011.01 1010.81 1010.64 1010.49 1010.33 1010.12 1009.83 1009.48 1009.07 1008.64 1008.22 1007.86 1007.59 1007.40 1007.29 1007.24 1007.21 1007.18 1007.12 1007.02 1006.88 1006.72 1006.54 1006.39 1006.28 1006.26 1006.35 1006.57 1006.95 1007.48 1008.15 1008.91 1009.71 1010.49 1011.21 1011.81 1012.28 1012.63 1012.90 1013.14 1013.42 1013.77 1014.21
1011.77 1011.57 1011.38 1011.17 1010.91 1010.59 1010.19 1009.74 1009.25 1008.76 1008.31 1007.93 1007.65 1007.47 1007.37 1007.34 1007.34 1007.34 1007.33 1007.27 1007.16 1007.01 1006.82 1006.62 1006.45 1006.33 1006.31 1006.44 1006.73 1007.21 1007.84 1008.61 1009.44 1010.27 1011.03 1011.67 1012.16 1012.53 1012.80 1013.03 1013.29 1013.63 1014.07
1012.62 1012.41 1012.18 1011.89 1011.53 1011.10 1010.60 1010.06 1009.50 1008.96 1008.48 1008.09 1007.80 1007.61 1007.51 1007.48 1007.48 1007.50 1007.51 1007.49 1007.41 1007.28 1007.10 1006.89 1006.67 1006.49 1006.40 1006.45 1006.66 1007.07 1007.67 1008.41 1009.23 1010.07 1010.84 1011.50 1012.01 1012.38 1012.65 1012.88 1013.14 1013.48 1013.91
1013.47 1013.25 1012.96 1012.60 1012.15 1011.62 1011.04 1010.42 1009.81 1009.24 1008.75 1008.35 1008.05 1007.84 1007.72 1007.67 1007.66 1007.67 1007.69 1007.68 1007.63 1007.53 1007.38 1007.18 1006.96 1006.77 1006.64 1006.64 1006.80 1007.15 1007.69 1008.37 1009.16 1009.96 1010.70 1011.34 1011.84 1012.21 1012.49 1012.73 1013.00 1013.34 1013.78
1014.25 1014.02 1013.69 1013.26 1012.73 1012.13 1011.48 1010.82 1010.18 1009.61 1009.11 1008.71 1008.40 1008.17 1008.02 1007.93 1007.88 1007.87 1007.87 1007.86 1007.84 1007.78 1007.67 1007.52 1007.34 1007.17 1007.05 1007.04 1007.17 1007.47 1007.94 1008.55 1009.25 1009.98 1010.65 1011.24 1011.71 1012.06 1012.34 1012.60 1012.88 1013.24 1013.69
1014.95 1014.69 1014.32 1013.83 1013.25 1012.59 1011.91 1011.24 1010.60 1010.04 1009.55 1009.15 1008.83 1008.57 1008.38 1008.24 1008.14 1008.09 1008.06 1008.06 1008.05 1008.03 1007.98 1007.90 1007.80 1007.69 1007.63 1007.64 1007.77 1008.03 1008.43 1008.94 1009.53 1010.13 1010.71 1011.20 1011.61 1011.93 1012.21 1012.47 1012.78 1013.17 1013.63
1015.54 1015.26 1014.85 1014.33 1013.70 1013.03 1012.34 1011.67 1011.06 1010.51 1010.04 1009.65 1009.31 1009.02 1008.78 1008.58 1008.43 1008.33 1008.27 1008.26 1008.27 1008.30 1008.32 1008.33 1008.32 1008.31 1008.32 1008.38 1008.53 1008.76 1009.09 1009.49 1009.95 1010.41 1010.84 1011.21 1011.53 1011.80 1012.06 1012.34 1012.68 1013.10 1013.59
1016.03 1015.73 1015.30 1014.74 1014.11 1013.44 1012.76 1012.12 1011.54 1011.02 1010.57 1010.16 1009.80 1009.48 1009.19 1008.93 1008.73 1008.58 1008.49 1008.47 1008.51 1008.58 1008.67 1008.76 1008.86 1008.95 1009.05 1009.18 1009.35 1009.57 1009.84 1010.13 1010.44 1010.74 1011.01 1011.25 1011.46 1011.66 1011.89 1012.18 1012.54 1013.00 1013.53
1016.43 1016.12 1015.67 1015.11 1014.49 1013.85 1013.21 1012.61 1012.06 1011.56 1011.11 1010.69 1010.30 1009.92 1009.58 1009.27 1009.01 1008.82 1008.72 1008.69 1008.74 1008.85 1009.00 1009.17 1009.35 1009.54 1009.73 1009.93 1010.13 1010.35 1010.56 1010.76 1010.93 1011.08 1011.18 1011.27 1011.37 1011.49 1011.69 1011.97 1012.36 1012.85 1013.41
1016.76 1016.44 1016.00 1015.46 1014.87 1014.27 1013.69 1013.14 1012.62 1012.14 1011.67 1011.23 1010.78 1010.36 1009.95 1009.59 1009.29 1009.07 1008.94 1008.91 1008.97 1009.09 1009.28 1009.50 1009.74 1010.00 1010.26 1010.52 1010.77 1010.98 1011.16 1011.28 1011.35 1011.36 1011.33 1011.28 1011.26 1011.31 1011.46 1011.73 1012.13 1012.65 1013.25
1017.03 1016.71 1016.29 1015.79 1015.27 1014.74 1014.22 1013.73 1013.25 1012.77 1012.29 1011.79 1011.29 1010.80 1010.33 1009.92 1009.58 1009.33 1009.19 1009.14 1009.19 1009.31 1009.50 1009.73 1010.00 1010.30 1010.60 1010.90 1011.17 1011.41 1011.57 1011.66 1011.65 1011.57 1011.43 1011.28 1011.17 1011.14 1011.24 1011.50 1011.90 1012.43 1013.05
1017.23 1016.93 1016.55 1016.12 1015.68 1015.24 1014.81 1014.38 1013.94 1013.46 1012.96 1012.41 1011.85 1011.29 1010.76 1010.29 1009.92 1009.64 1009.47 1009.40 1009.42 1009.51 1009.66 1009.87 1010.12 1010.40 1010.71 1011.03 1011.33 1011.59 1011.77 1011.85 1011.83 1011.70 1011.50 1011.29 1011.12 1011.04 1011.09 1011.32 1011.71 1012.25 1012.88
1017.37 1017.11 1016.79 1016.45 1016.10 1015.77 1015.44 1015.08 1014.68 1014.22 1013.69 1013.10 1012.47 1011.85 1011.27 1010.75 1010.34 1010.03 1009.82 1009.72 1009.68 1009.71 1009.79 1009.92 1010.11 1010.34 1010.62 1010.94 1011.25 1011.54 1011.76 1011.87 1011.88 1011.76 1011.57 1011.34 1011.14 1011.03 1011.06 1011.25 1011.62 1012.14 1012.76
1017.47 1017.25 1017.00 1016.75 1016.52 1016.29 1016.06 1015.79 1015.45 1015.01 1014.47 1013.85 1013.18 1012.51 1011.87 1011.32 1010.87 1010.53 1010.28 1010.11 1010.01 1009.94 1009.92 1009.94 1010.01 1010.16 1010.38 1010.66 1010.97 1011.29 1011.56 1011.75 1011.82 1011.77 1011.63 1011.44 1011.25 1011.14 1011.15 1011.32 1011.65 1012.14 1012.73
1017.55 1017.37 1017.19 1017.02 1016.89 1016.78 1016.65 1016.46 1016.18 1015.77 1015.25 1014.62 1013.93 1013.23 1012.57 1011.99 1011.51 1011.13 1010.84 1010.61 1010.41 1010.23 1010.07 1009.95 1009.89 1009.91 1010.04 1010.26 1010.56 1010.89 1011.22 1011.49 1011.67 1011.73 1011.68 1011.57 1011.44 1011.36 1011.37 1011.51 1011.81 1012.25 1012.79
1017.62 1017.48 1017.35 1017.26 1017.21 1017.18 1017.13 1017.02 1016.81 1016.45 1015.96 1015.35 1014.67 1013.97 1013.31 1012.72 1012.22 1011.82 1011.48 1011.17 1010.88 1010.58 1010.28 1010.01 1009.79 1009.67 1009.68 1009.81 1010.07 1010.41 1010.78 1011.13 1011.42 1011.61 1011.69 1011.69 1011.65 1011.62 1011.66 1011.79 1012.05 1012.44 1012.91
1017.69 1017.58 1017.49 1017.44 1017.44 1017.47 1017.48 1017.43 1017.27 1016.98 1016.53 1015.96 1015.32 1014.65 1014.01 1013.44 1012.94 1012.52 1012.14 1011.77 1011.39 1010.98 1010.55 1010.13 1009.75 1009.48 1009.35 1009.38 1009.57 1009.88 1010.28 1010.69 1011.08 1011.39 1011.61 1011.73 1011.81 1011.86 1011.94 1012.09 1012.32 1012.65 1013.05
1017.78 1017.68 1017.60 1017.56 1017.58 1017.63 1017.67 1017.66 1017.54 1017.30 1016.91 1016.40 1015.81 1015.19 1014.60 1014.05 1013.57 1013.15 1012.75 1012.34 1011.89 1011.39 1010.85 1010.30 1009.78 1009.37 1009.10 1009.01 1009.11 1009.37 1009.75 1010.20 1010.65 1011.06 1011.41 1011.66 1011.86 1012.01 1012.15 1012.32 1012.54 1012.83 1013.17
Thickness
5789 5790 5790 5789 5788 5787 5786 5785 5783 5782 5781 5780 5778 5778 5777 5777 5777 5777 5776 5775 5775 5774 5773 5772 5771 5771 5770 5770 5769 5769 5769 5768 5768 5767 5767 5767 5766 5765 5764 5763 5761 5760 5759
5795 5792 5790 5789 5788 5786 5785 5784 5783 5781 5780 5779 5778 5777 5776 5776 5775 5775 5774 5774 5773 5773 5772 5771 5770 5769 5768 5768 5768 5767 5766 5766 5766 5766 5766 5766 5765 5764 5763 5762 5760 5759 5757
5797 5793 5791 5789 5787 5786 5784 5783 5782 5780 5779 5777 5776 5775 5775 5774 5774 5773 5773 5772 5772 5771 5770 5769 5768 5767 5767 5766 5766 5765 5764 5764 5764 5764 5764 5764 5763 5762 5761 5760 5758 5756 5755
5798 5794 5791 5789 5787 5785 5783 5782 5780 5779 5777 5776 5775 5774 5773 5772 5772 5771 5771 5770 5770 5769 5769 5767 5767 5766 5765 5764 5764 5763 5763 5763 5763 5763 5762 5761 5761 5760 5759 5757 5756 5754 5753
5798 5794 5791 5789 5787 5785 5782 5780 5779 5777 5776 5775 5774 5773 5772 5771 5771 5770 5769 5769 5768 5768 5767 5766 5765 5764 5763 5762 5762 5761 5761 5761 5761 5761 5760 5760 5759 5758 5757 5755 5753 5752 5751
5797 5794 5791 5789 5786 5784 5782 5779 5778 5776 5775 5773 5772 5771 5770 5770 5769 5768 5768 5768 5767 5766 5765 5764 5763 5762 5762 5761 5760 5760 5759 5759 5759 5759 5758 5758 5757 5756 5755 5753 5751 5750 5748
5796 5794 5791 5788 5785 5783 5781 5778 5777 5775 5774 5772 5771 5770 5769 5768 5767 5767 5766 5767 5765 5763 5763 5762 5761 5760 5760 5759 5758 5758 5757 5757 5757 5757 5756 5756 5755 5754 5753 5751 5750 5748 5746
5797 5793 5790 5787 5784 5782 5780 5777 5775 5774 5772 5771 5770 5769 5767 5766 5766 5765 5765 5764 5762 5761 5761 5760 5759 5759 5758 5757 5756 5755 5755 5755 5755 5754 5754 5754 5753 5751 5750 5749 5747 5746 5744
5797 5793 5789 5786 5784 5781 5779 5776 5774 5773 5771 5770 5768 5767 5766 5765 5764 5764 5763 5762 5761 5760 5759 5758 5758 5757 5756 5756 5755 5754 5753 5753 5753 5752 5752 5752 5751 5749 5748 5746 5745 5744 5742
5794 5791 5788 5786 5783 5780 5778 5775 5773 5771 5770 5768 5767 5766 5765 5764 5763 5762 5761 5761 5760 5759 5758 5757 5756 5755 5755 5754 5753 5753 5752 5751 5751 5750 5751 5750 5749 5747 5746 5745 5743 5742 5741
5790 5789 5787 5784 5782 5780 5777 5774 5772 5770 5768 5767 5766 5765 5763 5762 5761 5760 5760 5759 5759 5758 5757 5756 5755 5754 5754 5753 5753 5752 5750 5750 5748 5748 5748 5747 5746 5745 5744 5743 5741 5740 5739
5787 5786 5786 5784 5781 5779 5776 5774 5771 5769 5767 5765 5764 5763 5762 5761 5760 5759 5758 5758 5757 5757 5756 5755 5754 5754 5754 5752 5751 5750 5749 5748 5746 5746 5745 5745 5744 5743 5742 5741 5739 5738 5736
5789 5787 5785 5783 5781 5778 5776 5773 5770 5768 5766 5764 5763 5762 5761 5760 5758 5758 5757 5756 5756 5755 5755 5754 5754 5753 5753 5751 5750 5749 5748 5747 5745 5744 5744 5743 5742 5741 5740 5738 5737 5736 5735
5789 5788 5786 5784 5781 5778 5776 5773 5770 5768 5766 5764 5762 5761 5760 5758 5757 5756 5755 5755 5754 5754 5753 5753 5753 5753 5752 5750 5748 5747 5746 5745 5744 5743 5742 5741 5741 5740 5738 5737 5735 5735 5734
5790 5789 5787 5785 5781 5779 5776 5773 5770 5768 5766 5764 5762 5761 5760 5758 5756 5756 5755 5754 5753 5753 5752 5751 5751 5751 5749 5748 5747 5746 5744 5743 5743 5742 5740 5739 5738 5738 5737 5736 5734 5734 5733
5790 5788 5787 5784 5782 5779 5775 5772 5770 5767 5765 5763 5762 5761 5759 5758 5757 5755 5754 5753 5752 5752 5751 5750 5749 5748 5747 5746 5744 5743 5742 5742 5741 5740 5739 5738 5737 5737 5735 5734 5733 5732 5731
5791 5789 5787 5784 5781 5778 5775 5772 5769 5767 5765 5763 5761 5760 5759 5758 5756 5755 5753 5752 5752 5751 5750 5749 5747 5746 5745 5744 5742 5741 5740 5739 5739 5738 5737 5736 5736 5735 5734 5733 5732 5731 5730
5791 5787 5786 5786 5780 5777 5774 5771 5768 5765 5763 5761 5760 5759 5758 5757 5756 5754 5752 5752 5751 5750 5748 5746 5744 5742 5741 5740 5739 5738 5738 5737 5737 5736 5736 5735 5734 5733 5733 5732 5731 5730 5729
5790 5786 5784 5782 5778 5775 5772 5769 5766 5764 5761 5760 5758 5757 5756 5755 5754 5753 5752 5751 5750 5748 5746 5745 5742 5740 5738 5737 5736 5736 5735 5735 5735 5735 5735 5734 5733 5732 5731 5730 5730 5729 5728
5788 5785 5782 5779 5776 5773 5769 5766 5763 5760 5758 5757 5756 5755 5754 5753 5753 5752 5751 5750 5748 5746 5744 5743 5741 5739 5737 5735 5735 5734 5733 5733 5734 5734 5733 5732 5731 5730 5729 5729 5728 5727 5726
5785 5782 5779 5775 5772 5769 5765 5761 5757 5755 5754 5754 5754 5753 5752 5751 5751 5750 5749 5748 5747 5744 5743 5741 5739 5736 5734 5734 5730 5727 5729 5731 5731 5731 5731 5730 5729 5728 5728 5727 5726 5725 5725
5781 5779 5775 5772 5770 5767 5764 5761 5758 5755 5753 5752 5751 5751 5750 5749 5749 5748 5746 5745 5745 5743 5741 5740 5738 5734 5733 5733 5728 5722 5718 5720 5725 5728 5728 5728 5727 5727 5725 5725 5724 5723 5723
5778 5776 5775 5771 5768 5766 5763 5760 5756 5752 5749 5747 5747 5746 5747 5747 5746 5746 5745 5744 5743 5742 5739 5738 5737 5734 5730 5730 5730 5724 5716 5712 5716 5721 5723 5724 5724 5723 5723 5723 5722 5721 5721
5777 5776 5774 5770 5767 5765 5762 5757 5752 5748 5744 5745 5745 5745 5745 5745 5744 5744 5743 5742 5741 5741 5739 5738 5737 5734 5731 5728 5728 5727 5725 5722 5715 5712 5715 5719 5720 5720 5720 5721 5720 5719 5718
5777 5774 5772 5768 5765 5763 5759 5756 5752 5748 5746 5744 5743 5742 5742 5742 5742 5742 5742 5740 5739 5738 5738 5737 5735 5734 5731 5729 5726 5725 5723 5721 5719 5713 5708 5711 5714 5716 5717 5718 5717 5716 5716
5773 5771 5768 5764 5761 5759 5757 5754 5750 5747 5744 5742 5740 5738 5738 5738 5740 5740 5740 5739 5737 5736 5736 5735 5734 5732 5730 5728 5726 5724 5722 5719 5715 5712 5708 5706 5707 5710 5713 5715 5715 5714 5713